{"data":{"norad_id":63172,"intl_designator":"2025-046P","name":"QIANFAN-86","alt_names":[],"object_type":"PAYLOAD","status":"ACTIVE","operator":null,"country":"PRC","launch_date":"2025-03-11","launch_site_code":"WSC","launch_vehicle":null,"mission":null,"orbit_class":"UNKNOWN","rcs_meters":null,"size_class":null,"mass_kg":null,"dimensions":null,"purposes":[],"wikipedia_slug":null,"has_3d_model":false,"image_url":null,"decayed_at":null,"tle_current":{"epoch":"2026-05-25T03:53:32.822016Z","epoch_age_seconds":54936,"freshness":"FRESH","line1":"1 63172U 25046P   26145.16218544  .00000040  00000+0  43141-4 0  9995","line2":"2 63172  88.9692 302.8453 0011640  29.6045 330.5763 13.51012452 69619","mean_motion":13.51012452,"eccentricity":0.001164,"inclination_deg":88.9692,"raan_deg":302.8453,"arg_perigee_deg":29.6045,"mean_anomaly_deg":330.5763,"bstar":4.3141e-5,"rev_number":6961,"period_min":106.58673040861,"perigee_km":1059.8679014343,"apogee_km":1077.2037557793,"semimajor_km":7446.6728286068,"source":"CELESTRAK","updated_at":"2026-05-25T13:38:03.541620Z"}}}